This is the latest recevied weather packets stored in our database for station/object HK4RAU-90. If no packets are shown the sender has not sent any weather packets the latest 10 day(s).
| Time | Temp. | Humidity | Pressure | Rain* | Wind** | Luminosity | Snow |
|---|---|---|---|---|---|---|---|
| 1777687993 | 23.89° C | 96% | 1011 hPa | 0 mm | - | - | - |
| 1777687812 | 20° C | 96% | 1011 hPa | 0 mm | - | - | - |
| 1777687629 | 20.56° C | 96% | 1011 hPa | 0 mm | - | - | - |
| 1777687443 | 20.56° C | 96% | 1011 hPa | 0 mm | - | - | - |
| 1777687260 | 20.56° C | 96% | 1011 hPa | 0 mm | - | - | - |
| 1777687079 | 21.11° C | 96% | 1011 hPa | 0 mm | - | - | - |
| 1777686895 | 21.11° C | 96% | 1011 hPa | 0 mm | - | - | - |
| 1777686714 | 21.67° C | 96% | 1011 hPa | 0 mm | - | - | - |
| 1777686527 | 22.22° C | 96% | 1011 hPa | 0.25 mm | - | - | - |
| 1777686345 | 21.67° C | 96% | 1011 hPa | 0 mm | - | - | - |
| 1777686154 | 21.67° C | 96% | 1011 hPa | 0 mm | - | - | - |
| 1777685961 | 22.22° C | 96% | 1011 hPa | 0.25 mm | - | - | - |
| 1777685778 | 22.78° C | 96% | 1010 hPa | 0.76 mm | - | - | - |
| 1777685595 | 22.22° C | 96% | 1010 hPa | 0.76 mm | - | - | - |
| 1777685402 | 22.22° C | 96% | 1010 hPa | 0.76 mm | - | - | - |
| 1777685201 | 22.78° C | 96% | 1010 hPa | 0.76 mm | - | - | - |
| 1777684630 | 23.33° C | 96% | 1010 hPa | 1.02 mm | - | - | - |
| 1777683636 | 23.89° C | 96% | 1010 hPa | 2.29 mm | - | - | - |
| 1777683454 | 24.44° C | 96% | 1010 hPa | 2.29 mm | - | - | - |
| 1777683273 | 20.56° C | 93% | 1010 hPa | 2.29 mm | - | - | - |
| 1777683086 | 21.11° C | 93% | 1010 hPa | 1.02 mm | - | - | - |
| 1777682904 | 21.11° C | 93% | 1010 hPa | 1.02 mm | - | - | - |
| 1777682715 | 20.56° C | 93% | 1010 hPa | 1.52 mm | - | - | - |
| 1777682509 | 21.11° C | 93% | 1010 hPa | 1.02 mm | - | - | - |
| 1777682315 | 21.67° C | 93% | 1010 hPa | 4.32 mm | - | - | - |
* Rain latest hour (hover to see other rain measurements)
** Current wind speed in m/s (hover to see current wind gust speed)